Snowfall_Accumulation
2.2 2.3 2.1 1.6 1.2 0.8 0.6 0.4 0.2 0.4 0.3 0.1 0.0 0.0 0.0 0.0 0.0 0.0 0.0 0.0 0.0 0.0 0.0 0.0 0.0 0.0 0.0 0.0 0.0 0.0 0.0 0.0 0.0 1.0 0.8 0.4 0.0 0.0 0.0 0.0 0.0 0.0 0.0
2.1 2.6 2.8 2.5 1.8 1.4 1.2 0.8 0.6 0.7 0.7 0.2 0.1 0.0 0.0 0.0 0.0 0.0 0.0 0.0 0.0 0.0 0.0 0.0 0.0 0.0 0.0 0.0 0.0 0.3 0.0 0.1 0.9 0.8 0.1 0.1 0.0 0.0 0.0 0.0 0.0 0.0 0.1
1.7 2.4 2.9 3.1 2.4 1.9 2.0 1.5 1.2 0.9 0.7 0.0 0.0 0.0 0.0 0.0 0.0 0.0 0.0 0.0 0.0 0.0 0.0 0.0 0.0 0.0 0.0 0.0 0.8 0.3 0.1 0.9 0.4 0.5 0.2 0.0 0.0 0.0 0.0 0.0 0.0 0.0 0.0
4.5 1.8 2.9 3.6 2.8 2.6 2.9 2.2 2.0 0.9 1.2 0.0 0.0 0.0 0.0 0.0 0.0 0.0 0.0 0.0 0.0 0.0 0.0 0.0 0.0 0.0 0.1 0.5 0.9 0.5 0.2 0.1 0.0 0.3 0.0 0.7 0.4 0.0 0.4 0.2 0.0 0.0 0.0
3.1 4.1 2.8 4.0 3.3 3.0 3.3 2.9 2.8 1.2 2.3 1.4 0.0 0.0 0.0 0.0 0.0 0.0 0.0 0.0 0.2 0.0 0.7 1.8 1.3 0.6 0.3 0.1 0.2 0.4 0.0 0.0 0.7 2.4 2.3 1.4 0.8 0.3 0.1 0.0 0.0 0.0 0.0
5.9 2.9 2.6 3.8 3.3 3.1 3.8 3.6 4.3 1.9 3.1 1.9 0.7 0.3 0.0 0.0 0.0 0.0 0.0 0.0 0.9 0.5 1.3 1.1 0.6 0.8 0.4 0.0 0.0 0.0 0.0 0.8 2.7 4.0 3.4 1.5 0.0 0.0 0.0 0.0 0.9 2.0 2.2
8.3 7.4 2.6 3.0 3.5 3.3 3.7 4.0 5.8 3.7 2.5 2.4 0.6 0.0 0.0 0.0 0.0 0.0 0.4 2.3 2.4 2.1 2.1 1.9 1.1 0.4 0.3 0.2 0.0 0.0 0.1 0.4 0.4 0.4 0.3 0.1 0.2 0.0 1.8 3.5 2.2 2.7 1.6
7.2 6.7 9.6 8.2 5.6 3.6 4.5 7.2 7.3 5.7 4.5 5.3 5.7 4.4 5.4 2.5 0.5 0.6 1.5 1.7 0.9 0.7 0.5 0.5 0.0 0.0 0.0 0.1 0.2 1.5 0.9 0.2 0.0 0.0 0.0 0.1 0.5 0.3 0.4 0.8 0.7 0.9 0.4
5.1 6.2 6.9 9.2 9.9 8.1 6.6 7.1 6.2 7.3 8.1 6.2 4.6 3.1 1.3 1.1 0.3 0.1 0.3 0.3 0.5 0.0 0.1 0.0 0.1 0.1 0.0 0.0 1.0 1.5 0.2 0.0 0.0 0.0 0.1 0.1 0.0 0.0 0.0 1.6 3.1 3.3 2.2
1.4 3.3 3.9 5.8 9.0 11.5 11.8 11.1 10.8 8.9 7.4 4.1 3.2 1.3 0.2 0.5 0.0 0.0 0.0 0.0 0.0 0.0 0.0 0.0 0.0 0.0 0.0 0.3 0.5 0.1 0.6 0.0 0.9 0.7 0.0 0.0 0.0 0.0 0.0 0.1 3.4 11.8 5.6
0.0 1.6 2.6 3.6 6.4 10.6 14.1 14.2 13.2 11.7 8.6 5.8 2.2 1.0 0.1 0.1 0.0 0.0 0.0 0.0 0.0 0.5 0.3 0.0 0.0 0.1 0.5 0.1 0.0 0.0 0.1 0.1 0.1 0.1 0.7 0.0 0.0 0.5 0.6 0.6 1.6 10.4 15.8
1.8 3.1 3.9 3.4 3.3 5.2 8.3 9.3 9.8 9.2 8.9 9.3 8.5 6.3 2.3 0.8 0.1 0.2 0.0 0.0 0.0 0.3 0.2 0.0 0.2 0.7 0.0 0.0 0.0 0.1 0.1 0.2 0.0 0.1 0.2 0.2 0.2 0.3 0.2 0.2 0.7 1.8 3.5
0.7 0.5 0.9 0.4 0.2 1.1 2.7 5.6 7.2 8.5 9.1 10.2 9.6 9.0 7.8 5.0 3.2 0.4 0.1 0.1 0.1 0.2 0.1 0.4 0.4 0.0 0.0 0.0 0.0 0.0 0.0 0.0 0.5 1.9 1.3 0.5 0.3 0.6 1.1 3.6 3.9 4.2 5.2
0.0 0.0 0.0 0.0 0.1 0.4 0.7 2.4 3.8 6.0 7.3 8.1 9.0 8.9 8.1 6.5 6.1 3.8 3.5 0.7 0.0 0.1 0.9 0.8 0.0 0.0 0.0 0.0 0.0 0.0 0.0 0.1 1.6 3.7 3.7 1.9 2.2 4.1 4.6 5.5 9.9 9.3 12.8
0.0 0.0 0.0 0.0 0.0 0.1 0.2 0.6 2.4 4.0 5.7 7.3 8.4 7.4 8.2 7.8 8.0 6.1 7.0 6.6 3.8 2.8 1.7 0.9 0.0 0.0 0.0 0.0 0.0 0.0 0.0 0.0 1.4 1.8 3.7 4.0 4.2 5.8 7.1 9.2 13.0 15.4 16.4
0.0 0.0 0.0 0.0 0.0 0.0 0.0 0.1 0.1 0.6 1.3 1.9 2.7 3.9 3.4 4.3 3.3 3.3 3.7 4.9 5.5 4.1 3.4 3.6 1.7 1.1 0.5 0.3 0.1 1.1 1.5 1.3 2.3 5.1 5.5 5.6 8.2 9.6 11.6 13.5 15.0 16.6 16.1
0.5 0.2 0.1 0.0 0.0 0.0 0.0 0.2 0.1 0.0 0.0 0.2 0.8 1.8 1.9 1.7 1.6 2.0 3.0 4.3 4.5 5.1 6.3 7.9 8.2 7.9 5.8 4.9 3.0 4.9 4.7 3.3 5.4 8.4 8.8 9.0 10.7 11.9 12.3 14.6 13.3 13.6 12.3
1.6 1.1 0.9 0.5 0.2 0.0 0.1 0.0 0.1 0.1 0.0 0.0 0.1 0.3 0.9 1.1 1.0 1.6 2.3 2.3 3.7 4.5 7.7 10.2 11.4 12.2 11.4 11.7 11.0 11.4 9.9 8.3 8.7 8.8 12.0 12.2 12.2 15.7 15.8 14.9 12.8 12.8 11.7
3.8 4.0 3.2 2.1 1.3 0.6 0.5 0.4 0.6 0.5 0.2 0.0 0.0 0.0 0.1 0.2 0.8 1.1 1.3 2.1 4.1 7.4 8.7 9.4 10.5 10.6 11.8 13.3 13.4 13.8 13.7 16.5 19.0 19.6 17.2 16.8 14.9 20.3 17.7 12.4 11.6 8.3 6.9
5.0 4.4 4.3 4.5 3.5 2.7 1.6 1.4 1.2 1.7 1.7 1.2 0.9 0.5 0.5 0.4 2.1 1.1 1.7 2.0 3.1 5.9 6.5 7.8 8.3 8.7 11.2 12.4 15.1 15.6 17.2 17.3 18.7 16.4 17.1 16.7 19.9 21.8 20.5 15.0 10.4 12.5 9.6
4.9 4.6 4.5 5.5 5.3 4.7 4.4 4.4 3.4 2.9 3.4 3.3 2.7 2.3 1.9 1.5 0.6 1.1 1.2 2.2 2.5 3.2 4.9 6.3 7.1 8.5 9.2 10.9 14.4 16.5 18.9 19.9 20.8 24.2 23.7 21.7 20.9 20.7 12.9 13.2 13.3 12.4 13.5
4.7 5.1 4.7 4.8 5.3 6.1 5.8 6.0 6.2 5.9 5.0 4.8 4.2 3.4 2.1 2.6 2.9 2.7 2.5 2.4 2.1 3.1 3.4 5.2 6.7 7.7 11.3 16.9 20.0 21.6 20.4 20.8 21.5 24.6 23.8 21.7 20.1 18.1 16.6 15.6 13.2 12.9 13.3
3.0 3.6 3.7 4.0 3.9 4.3 5.6 5.7 6.0 6.1 5.5 4.7 4.5 4.7 4.2 4.7 4.1 3.7 3.6 3.7 3.8 3.9 4.1 3.9 5.1 6.5 6.1 10.2 16.4 24.3 27.9 22.7 22.6 24.1 25.7 23.1 20.1 19.7 22.2 22.6 19.5 20.0 17.4
1.9 2.6 2.7 3.0 3.2 3.1 3.8 4.2 4.8 5.1 5.3 4.9 4.3 4.5 5.2 5.2 4.3 4.2 4.0 4.1 4.1 4.4 4.2 4.5 6.4 7.2 7.6 10.5 14.3 17.2 21.9 22.6 23.2 23.9 25.0 27.3 20.7 16.0 16.5 19.0 17.6 18.0 18.6
2.1 1.8 2.0 2.5 2.5 3.0 3.0 3.5 4.0 4.2 4.3 4.3 4.5 5.1 4.9 5.2 5.5 5.3 5.2 4.8 5.6 5.3 5.0 5.5 6.8 9.0 9.2 12.1 14.7 15.0 16.4 13.1 15.0 15.4 16.2 17.4 18.3 14.5 15.4 16.8 15.3 16.5 16.7
2.2 2.3 2.0 2.1 2.3 2.8 3.3 3.2 3.2 3.4 4.2 3.9 4.4 5.5 5.4 5.6 5.4 5.0 5.2 6.6 6.5 5.9 5.4 5.7 7.2 9.7 10.8 12.2 12.5 14.1 10.8 10.4 9.2 7.2 11.0 16.7 15.4 13.4 13.7 17.1 15.6 17.2 17.0